FORMOSAT-3 FM2 (29052 NORAD) Tracking and Keplerian Element Data

This shows tracking and keplerian element data for the satellite.

Feedback or suggestion? Click here.




ElementValue
Catalog29052
NameFORMOSAT-3 FM2
Epoch Orbit66141
Epoch Day345.65267274
Epoch Year2018
RAAN215.9509
Inclination72.0339
Eccentricity0.0042042
Argument of Perigee247.3508
Mean Anonmoly112.3181
Mean Motion14.28810696
Decay Rate5.3E-07
L11 29052U 06011F 18345.65267274 .00000053 00000-0 37027-4 0 9997
L22 29052 72.0339 215.9509 0042042 247.3508 112.3181 14.28810696661416

Live tracking and technical data element details for FORMOSAT-3 FM2 (NORAD 29052). FORMOSAT-3 FM2 can be tracked NOW for your location showing map with azimuth and elevation plus other details from your city location.

Track the satellite on the map from your city or location and see movement details for azimuth, elevation, latitude, longitude, range, height, and movement on the map or in text.







IsCatalogInMostPopularTable: catalog: 29052, numindb: 51
Update: records affected: 1



GetName: 29052 FORMOSAT-3 FM2

Hit Count: updated at: Thu, 13 Dec 2018 03:30:12 GMT